QPF
0.01 0.01 0.01 0.01 0.01 0.01 0.01 0.01 0.03 0.03 0.02 0.03 0.04 0.05 0.04 0.04 0.03 0.03 0.03 0.03 0.03 0.03 0.03 0.02 0.03 0.03 0.04 0.05 0.07 0.08 0.08 0.08 0.08 0.07 0.07 0.06 0.05 0.04 0.04 0.03 0.03 0.02 0.02 0.02
0.01 0.01 0.01 0.02 0.01 0.01 0.01 0.01 0.03 0.03 0.03 0.05 0.05 0.06 0.06 0.06 0.06 0.06 0.06 0.05 0.06 0.05 0.04 0.03 0.03 0.03 0.03 0.03 0.05 0.05 0.06 0.05 0.04 0.03 0.03 0.03 0.02 0.02 0.01 0.01 0.01 0.01 0.01 0.00
0.02 0.02 0.02 0.03 0.01 0.01 0.01 0.02 0.04 0.05 0.05 0.07 0.09 0.08 0.10 0.11 0.11 0.11 0.12 0.12 0.11 0.09 0.07 0.05 0.04 0.03 0.03 0.03 0.03 0.02 0.02 0.02 0.02 0.02 0.02 0.01 0.01 0.01 0.01 0.00 0.00 0.00 0.00 0.00
0.02 0.02 0.03 0.02 0.01 0.01 0.02 0.03 0.03 0.04 0.04 0.06 0.09 0.09 0.11 0.13 0.14 0.13 0.13 0.14 0.14 0.12 0.11 0.09 0.06 0.04 0.02 0.02 0.01 0.01 0.01 0.01 0.01 0.01 0.01 0.00 0.00 0.00 0.00 0.00 0.00 0.00 0.00 0.00
0.01 0.02 0.02 0.02 0.02 0.02 0.05 0.03 0.03 0.03 0.04 0.05 0.06 0.07 0.13 0.15 0.13 0.12 0.11 0.11 0.10 0.10 0.11 0.10 0.06 0.03 0.02 0.02 0.02 0.01 0.01 0.01 0.01 0.00 0.00 0.00 0.00 0.00 0.00 0.00 0.00 0.00 0.00 0.00
0.01 0.01 0.02 0.02 0.01 0.01 0.05 0.05 0.04 0.03 0.03 0.05 0.07 0.09 0.10 0.12 0.11 0.12 0.11 0.11 0.09 0.07 0.06 0.05 0.04 0.03 0.02 0.01 0.01 0.01 0.01 0.00 0.00 0.00 0.00 0.00 0.00 0.00 0.00 0.00 0.00 0.00 0.00 0.00
0.01 0.01 0.01 0.01 0.00 0.03 0.07 0.07 0.07 0.05 0.04 0.05 0.07 0.10 0.10 0.08 0.08 0.10 0.10 0.09 0.06 0.05 0.06 0.04 0.03 0.02 0.02 0.01 0.01 0.00 0.00 0.00 0.00 0.00 0.00 0.00 0.00 0.00 0.01 0.01 0.01 0.01 0.00 0.01
0.01 0.01 0.01 0.00 0.01 0.03 0.04 0.03 0.06 0.05 0.05 0.04 0.02 0.03 0.05 0.04 0.03 0.04 0.04 0.04 0.04 0.03 0.02 0.02 0.02 0.02 0.01 0.01 0.01 0.00 0.00 0.00 0.00 0.00 0.00 0.00 0.01 0.01 0.00 0.01 0.01 0.01 0.01 0.01
0.00 0.00 0.00 0.00 0.00 0.00 0.01 0.01 0.02 0.03 0.03 0.01 0.01 0.02 0.02 0.02 0.02 0.02 0.03 0.02 0.02 0.03 0.02 0.01 0.01 0.01 0.01 0.01 0.01 0.00 0.00 0.00 0.00 0.00 0.00 0.00 0.00 0.00 0.00 0.01 0.01 0.01 0.00 0.01
0.00 0.00 0.00 0.00 0.00 0.00 0.00 0.00 0.01 0.02 0.02 0.01 0.01 0.01 0.02 0.02 0.02 0.02 0.01 0.02 0.02 0.02 0.02 0.01 0.01 0.01 0.01 0.01 0.00 0.01 0.01 0.00 0.00 0.00 0.00 0.00 0.00 0.00 0.00 0.01 0.01 0.01 0.00 0.00
0.00 0.00 0.00 0.00 0.00 0.00 0.00 0.00 0.00 0.01 0.01 0.01 0.00 0.00 0.00 0.01 0.01 0.01 0.01 0.01 0.02 0.02 0.01 0.01 0.01 0.01 0.01 0.01 0.01 0.01 0.00 0.00 0.00 0.00 0.00 0.00 0.00 0.00 0.00 0.00 0.00 0.00 0.00 0.00
0.00 0.00 0.00 0.00 0.00 0.00 0.00 0.00 0.00 0.01 0.00 0.00 0.00 0.00 0.00 0.01 0.01 0.01 0.01 0.01 0.01 0.01 0.01 0.01 0.01 0.00 0.01 0.01 0.01 0.01 0.01 0.00 0.00 0.00 0.00 0.00 0.00 0.00 0.00 0.00 0.00 0.00 0.00 0.00
0.00 0.00 0.00 0.00 0.00 0.00 0.00 0.00 0.01 0.01 0.00 0.00 0.00 0.00 0.00 0.01 0.01 0.00 0.00 0.00 0.00 0.00 0.00 0.00 0.00 0.00 0.00 0.00 0.00 0.00 0.00 0.00 0.00 0.00 0.00 0.00 0.00 0.00 0.01 0.00 0.00 0.00 0.00 0.00
0.00 0.00 0.00 0.00 0.00 0.00 0.00 0.00 0.00 0.00 0.00 0.00 0.00 0.00 0.00 0.01 0.01 0.00 0.00 0.00 0.00 0.00 0.00 0.00 0.00 0.00 0.00 0.00 0.00 0.00 0.00 0.00 0.00 0.00 0.00 0.00 0.00 0.00 0.00 0.01 0.01 0.01 0.00 0.00
0.00 0.00 0.00 0.00 0.00 0.00 0.00 0.00 0.00 0.00 0.00 0.00 0.00 0.00 0.01 0.00 0.00 0.00 0.00 0.00 0.00 0.00 0.00 0.00 0.00 0.00 0.00 0.00 0.00 0.00 0.00 0.00 0.00 0.00 0.00 0.00 0.00 0.00 0.00 0.00 0.01 0.01 0.01 0.01
0.00 0.00 0.00 0.00 0.00 0.00 0.00 0.00 0.00 0.00 0.00 0.00 0.00 0.01 0.00 0.00 0.00 0.00 0.00 0.00 0.00 0.00 0.00 0.00 0.00 0.00 0.00 0.00 0.00 0.00 0.00 0.00 0.00 0.00 0.00 0.00 0.00 0.00 0.00 0.00 0.00 0.01 0.01 0.01
0.00 0.00 0.00 0.00 0.00 0.00 0.00 0.00 0.00 0.00 0.00 0.00 0.00 0.00 0.00 0.00 0.00 0.00 0.00 0.00 0.00 0.00 0.00 0.00 0.00 0.00 0.00 0.00 0.00 0.00 0.00 0.00 0.00 0.00 0.00 0.00 0.00 0.00 0.00 0.00 0.01 0.01 0.01 0.00
0.00 0.00 0.00 0.00 0.00 0.00 0.00 0.00 0.00 0.00 0.00 0.00 0.00 0.00 0.00 0.00 0.00 0.00 0.00 0.00 0.00 0.00 0.00 0.00 0.00 0.00 0.00 0.00 0.00 0.00 0.00 0.00 0.00 0.00 0.00 0.00 0.00 0.00 0.00 0.00 0.01 0.01 0.01 0.00
0.00 0.00 0.00 0.00 0.00 0.00 0.00 0.00 0.00 0.00 0.00 0.00 0.00 0.00 0.00 0.00 0.00 0.00 0.00 0.00 0.00 0.00 0.00 0.00 0.00 0.00 0.00 0.00 0.00 0.00 0.00 0.00 0.00 0.00 0.00 0.00 0.00 0.00 0.00 0.00 0.00 0.00 0.00 0.01
0.00 0.00 0.00 0.00 0.00 0.00 0.00 0.00 0.00 0.00 0.00 0.00 0.00 0.00 0.00 0.00 0.00 0.00 0.00 0.00 0.00 0.00 0.00 0.00 0.00 0.00 0.00 0.00 0.00 0.00 0.00 0.00 0.00 0.00 0.00 0.00 0.00 0.00 0.00 0.00 0.00 0.00 0.01 0.01
0.00 0.00 0.00 0.00 0.00 0.00 0.00 0.00 0.00 0.00 0.00 0.00 0.00 0.00 0.00 0.00 0.00 0.00 0.00 0.00 0.00 0.00 0.00 0.00 0.00 0.00 0.00 0.00 0.00 0.00 0.00 0.00 0.00 0.00 0.00 0.00 0.00 0.00 0.00 0.00 0.00 0.00 0.01 0.01
0.00 0.00 0.00 0.00 0.00 0.00 0.00 0.00 0.00 0.00 0.00 0.00 0.00 0.00 0.00 0.00 0.00 0.00 0.00 0.00 0.00 0.00 0.00 0.00 0.00 0.00 0.00 0.00 0.00 0.00 0.00 0.00 0.00 0.00 0.00 0.00 0.00 0.00 0.00 0.00 0.00 0.00 0.00 0.00
0.00 0.00 0.00 0.00 0.00 0.00 0.00 0.00 0.00 0.00 0.00 0.00 0.00 0.00 0.00 0.00 0.00 0.00 0.00 0.00 0.00 0.00 0.00 0.00 0.00 0.00 0.00 0.00 0.00 0.00 0.00 0.00 0.00 0.00 0.00 0.00 0.00 0.00 0.00 0.00 0.00 0.00 0.00 0.00
0.00 0.00 0.00 0.00 0.00 0.00 0.00 0.00 0.00 0.00 0.00 0.00 0.00 0.00 0.00 0.00 0.00 0.00 0.00 0.00 0.00 0.00 0.00 0.00 0.00 0.00 0.00 0.00 0.00 0.00 0.00 0.00 0.00 0.00 0.00 0.00 0.00 0.00 0.00 0.00 0.00 0.00 0.00 0.00
0.00 0.00 0.00 0.00 0.00 0.00 0.00 0.00 0.00 0.00 0.00 0.00 0.00 0.00 0.00 0.00 0.00 0.00 0.00 0.00 0.00 0.00 0.00 0.00 0.00 0.00 0.00 0.00 0.00 0.00 0.00 0.00 0.00 0.00 0.00 0.00 0.00 0.00 0.00 0.00 0.00 0.00 0.00 0.00
0.00 0.00 0.00 0.00 0.00 0.00 0.00 0.00 0.00 0.00 0.00 0.00 0.00 0.00 0.00 0.00 0.00 0.00 0.00 0.00 0.00 0.00 0.00 0.00 0.00 0.00 0.00 0.00 0.00 0.00 0.00 0.00 0.00 0.00 0.00 0.00 0.00 0.00 0.00 0.00 0.00 0.00 0.00 0.00
0.00 0.00 0.00 0.00 0.00 0.00 0.00 0.00 0.00 0.00 0.00 0.00 0.00 0.00 0.00 0.00 0.00 0.00 0.00 0.00 0.00 0.00 0.00 0.00 0.00 0.00 0.00 0.00 0.00 0.00 0.00 0.00 0.00 0.00 0.00 0.00 0.00 0.00 0.00 0.00 0.00 0.00 0.00 0.00
MSLP
1011.66 1011.70 1011.71 1011.69 1011.68 1011.67 1011.72 1011.83 1012.03 1012.36 1012.81 1013.39 1014.11 1014.93 1015.84 1016.78 1017.73 1018.65 1019.49 1020.22 1020.85 1021.35 1021.75 1022.07 1022.34 1022.58 1022.83 1023.10 1023.40 1023.72 1024.05 1024.39 1024.70 1024.98 1025.23 1025.42 1025.58 1025.71 1025.82 1025.91 1025.99 1026.05 1026.08 1026.08
1012.20 1012.35 1012.46 1012.53 1012.60 1012.66 1012.76 1012.91 1013.15 1013.49 1013.94 1014.51 1015.19 1015.96 1016.80 1017.66 1018.52 1019.34 1020.08 1020.74 1021.29 1021.74 1022.11 1022.42 1022.69 1022.94 1023.21 1023.50 1023.81 1024.13 1024.46 1024.78 1025.07 1025.32 1025.52 1025.68 1025.79 1025.88 1025.96 1026.02 1026.09 1026.15 1026.18 1026.19
1012.70 1012.93 1013.14 1013.31 1013.46 1013.61 1013.78 1014.00 1014.29 1014.68 1015.15 1015.73 1016.39 1017.11 1017.88 1018.66 1019.41 1020.12 1020.75 1021.30 1021.76 1022.14 1022.46 1022.74 1023.00 1023.26 1023.53 1023.83 1024.15 1024.48 1024.80 1025.09 1025.35 1025.56 1025.71 1025.82 1025.88 1025.93 1025.96 1026.00 1026.04 1026.09 1026.13 1026.15
1013.11 1013.41 1013.69 1013.94 1014.17 1014.40 1014.66 1014.96 1015.33 1015.78 1016.30 1016.90 1017.56 1018.25 1018.97 1019.66 1020.32 1020.91 1021.43 1021.88 1022.25 1022.55 1022.82 1023.06 1023.31 1023.57 1023.85 1024.15 1024.47 1024.79 1025.09 1025.36 1025.58 1025.73 1025.83 1025.88 1025.89 1025.89 1025.88 1025.88 1025.90 1025.94 1025.98 1026.01
1013.44 1013.77 1014.09 1014.39 1014.68 1014.99 1015.33 1015.72 1016.17 1016.69 1017.27 1017.91 1018.58 1019.26 1019.93 1020.57 1021.14 1021.64 1022.07 1022.42 1022.71 1022.95 1023.17 1023.39 1023.62 1023.87 1024.15 1024.46 1024.77 1025.08 1025.36 1025.59 1025.76 1025.87 1025.91 1025.91 1025.86 1025.81 1025.76 1025.73 1025.74 1025.77 1025.81 1025.86
1013.68 1014.02 1014.35 1014.68 1015.01 1015.37 1015.78 1016.25 1016.77 1017.36 1018.01 1018.69 1019.39 1020.08 1020.73 1021.32 1021.83 1022.26 1022.62 1022.90 1023.13 1023.32 1023.50 1023.70 1023.92 1024.17 1024.45 1024.74 1025.05 1025.34 1025.59 1025.78 1025.91 1025.97 1025.97 1025.92 1025.84 1025.75 1025.68 1025.64 1025.64 1025.67 1025.73 1025.79
1013.86 1014.18 1014.51 1014.84 1015.20 1015.60 1016.06 1016.59 1017.18 1017.83 1018.54 1019.26 1019.99 1020.69 1021.33 1021.89 1022.37 1022.76 1023.06 1023.29 1023.48 1023.64 1023.80 1023.98 1024.19 1024.43 1024.70 1024.99 1025.28 1025.54 1025.76 1025.92 1026.01 1026.04 1026.01 1025.93 1025.84 1025.75 1025.68 1025.65 1025.66 1025.71 1025.79 1025.87
1013.98 1014.29 1014.61 1014.95 1015.32 1015.75 1016.24 1016.81 1017.45 1018.16 1018.91 1019.67 1020.42 1021.13 1021.77 1022.31 1022.77 1023.12 1023.39 1023.60 1023.75 1023.90 1024.04 1024.21 1024.41 1024.65 1024.90 1025.18 1025.44 1025.67 1025.86 1026.00 1026.07 1026.08 1026.04 1025.97 1025.89 1025.83 1025.79 1025.80 1025.85 1025.93 1026.04 1026.14
1014.08 1014.38 1014.70 1015.04 1015.43 1015.88 1016.41 1017.01 1017.69 1018.42 1019.20 1019.98 1020.74 1021.45 1022.08 1022.62 1023.05 1023.39 1023.64 1023.83 1023.97 1024.10 1024.24 1024.40 1024.59 1024.81 1025.05 1025.29 1025.53 1025.74 1025.90 1026.01 1026.07 1026.08 1026.05 1026.01 1025.98 1025.97 1026.00 1026.06 1026.17 1026.30 1026.44 1026.56
1014.17 1014.49 1014.82 1015.18 1015.59 1016.06 1016.61 1017.24 1017.94 1018.69 1019.47 1020.26 1021.02 1021.72 1022.34 1022.86 1023.27 1023.59 1023.83 1024.00 1024.14 1024.26 1024.39 1024.54 1024.72 1024.92 1025.14 1025.36 1025.56 1025.74 1025.87 1025.97 1026.02 1026.04 1026.05 1026.06 1026.09 1026.15 1026.25 1026.39 1026.56 1026.75 1026.92 1027.05
1014.25 1014.60 1014.97 1015.37 1015.81 1016.32 1016.89 1017.54 1018.25 1019.00 1019.78 1020.56 1021.29 1021.97 1022.56 1023.06 1023.45 1023.75 1023.98 1024.14 1024.28 1024.40 1024.52 1024.67 1024.83 1025.01 1025.20 1025.38 1025.55 1025.69 1025.80 1025.88 1025.93 1025.97 1026.02 1026.08 1026.17 1026.31 1026.49 1026.70 1026.94 1027.17 1027.37 1027.50
1014.33 1014.73 1015.15 1015.60 1016.10 1016.65 1017.25 1017.91 1018.63 1019.37 1020.13 1020.88 1021.59 1022.23 1022.78 1023.25 1023.62 1023.90 1024.12 1024.28 1024.41 1024.52 1024.65 1024.78 1024.93 1025.09 1025.25 1025.40 1025.53 1025.63 1025.71 1025.77 1025.82 1025.88 1025.95 1026.05 1026.20 1026.40 1026.65 1026.92 1027.20 1027.46 1027.67 1027.80
1014.38 1014.85 1015.34 1015.86 1016.41 1017.01 1017.65 1018.33 1019.04 1019.78 1020.51 1021.22 1021.89 1022.49 1023.00 1023.43 1023.78 1024.05 1024.25 1024.41 1024.53 1024.65 1024.77 1024.90 1025.03 1025.17 1025.29 1025.41 1025.50 1025.57 1025.62 1025.66 1025.70 1025.75 1025.83 1025.97 1026.15 1026.39 1026.68 1026.98 1027.29 1027.57 1027.77 1027.88
1014.41 1014.96 1015.52 1016.11 1016.73 1017.37 1018.04 1018.74 1019.46 1020.17 1020.88 1021.55 1022.17 1022.73 1023.21 1023.61 1023.93 1024.18 1024.38 1024.54 1024.67 1024.79 1024.91 1025.03 1025.14 1025.26 1025.36 1025.44 1025.49 1025.53 1025.54 1025.55 1025.57 1025.61 1025.69 1025.83 1026.03 1026.28 1026.57 1026.89 1027.20 1027.47 1027.67 1027.75
1014.42 1015.03 1015.67 1016.33 1017.00 1017.69 1018.40 1019.11 1019.82 1020.52 1021.20 1021.83 1022.42 1022.94 1023.39 1023.76 1024.07 1024.31 1024.51 1024.67 1024.81 1024.93 1025.05 1025.16 1025.27 1025.36 1025.43 1025.48 1025.50 1025.50 1025.48 1025.45 1025.45 1025.47 1025.53 1025.66 1025.85 1026.09 1026.37 1026.68 1026.97 1027.23 1027.40 1027.47
1014.40 1015.08 1015.78 1016.50 1017.23 1017.96 1018.68 1019.40 1020.11 1020.79 1021.44 1022.05 1022.60 1023.09 1023.52 1023.88 1024.18 1024.42 1024.63 1024.79 1024.94 1025.07 1025.19 1025.29 1025.39 1025.46 1025.51 1025.53 1025.52 1025.48 1025.43 1025.38 1025.34 1025.34 1025.39 1025.49 1025.65 1025.87 1026.13 1026.41 1026.68 1026.90 1027.06 1027.11
1014.39 1015.12 1015.87 1016.64 1017.40 1018.15 1018.89 1019.61 1020.30 1020.97 1021.60 1022.18 1022.71 1023.19 1023.61 1023.96 1024.27 1024.52 1024.73 1024.91 1025.06 1025.20 1025.32 1025.41 1025.49 1025.55 1025.57 1025.57 1025.53 1025.47 1025.40 1025.33 1025.27 1025.25 1025.27 1025.35 1025.49 1025.68 1025.91 1026.16 1026.40 1026.60 1026.73 1026.78
1014.40 1015.18 1015.97 1016.76 1017.54 1018.30 1019.03 1019.74 1020.41 1021.06 1021.67 1022.23 1022.75 1023.22 1023.64 1024.01 1024.32 1024.59 1024.82 1025.01 1025.18 1025.32 1025.43 1025.52 1025.58 1025.62 1025.62 1025.60 1025.54 1025.47 1025.38 1025.29 1025.23 1025.20 1025.21 1025.28 1025.40 1025.56 1025.77 1025.98 1026.19 1026.37 1026.50 1026.55
1014.48 1015.28 1016.09 1016.89 1017.66 1018.41 1019.13 1019.81 1020.46 1021.08 1021.67 1022.22 1022.74 1023.21 1023.64 1024.02 1024.35 1024.64 1024.89 1025.10 1025.27 1025.41 1025.52 1025.60 1025.65 1025.67 1025.65 1025.61 1025.54 1025.46 1025.37 1025.29 1025.22 1025.19 1025.21 1025.27 1025.38 1025.53 1025.71 1025.91 1026.10 1026.27 1026.39 1026.45
1014.62 1015.44 1016.25 1017.04 1017.80 1018.51 1019.20 1019.85 1020.47 1021.06 1021.63 1022.17 1022.68 1023.16 1023.60 1024.00 1024.36 1024.67 1024.94 1025.16 1025.34 1025.48 1025.59 1025.65 1025.69 1025.69 1025.66 1025.60 1025.53 1025.45 1025.36 1025.29 1025.24 1025.23 1025.25 1025.32 1025.43 1025.58 1025.75 1025.94 1026.12 1026.27 1026.39 1026.46
1014.84 1015.66 1016.46 1017.22 1017.94 1018.62 1019.26 1019.87 1020.45 1021.01 1021.55 1022.08 1022.59 1023.07 1023.53 1023.95 1024.33 1024.66 1024.95 1025.19 1025.37 1025.52 1025.61 1025.67 1025.69 1025.68 1025.64 1025.58 1025.50 1025.43 1025.36 1025.31 1025.28 1025.28 1025.33 1025.41 1025.53 1025.68 1025.85 1026.03 1026.20 1026.35 1026.46 1026.54
1015.11 1015.92 1016.70 1017.42 1018.10 1018.73 1019.32 1019.88 1020.41 1020.94 1021.46 1021.97 1022.48 1022.97 1023.43 1023.87 1024.26 1024.62 1024.92 1025.16 1025.36 1025.50 1025.59 1025.64 1025.65 1025.63 1025.58 1025.53 1025.46 1025.40 1025.35 1025.32 1025.32 1025.35 1025.41 1025.52 1025.65 1025.80 1025.97 1026.14 1026.30 1026.45 1026.56 1026.64
1015.39 1016.19 1016.93 1017.61 1018.23 1018.81 1019.35 1019.86 1020.36 1020.85 1021.35 1021.84 1022.34 1022.82 1023.29 1023.74 1024.14 1024.50 1024.81 1025.07 1025.26 1025.40 1025.49 1025.54 1025.55 1025.53 1025.50 1025.45 1025.40 1025.36 1025.33 1025.33 1025.35 1025.41 1025.50 1025.62 1025.76 1025.92 1026.09 1026.26 1026.41 1026.55 1026.66 1026.75
1015.63 1016.40 1017.10 1017.74 1018.32 1018.85 1019.34 1019.81 1020.27 1020.73 1021.21 1021.68 1022.16 1022.64 1023.10 1023.54 1023.95 1024.31 1024.62 1024.87 1025.07 1025.22 1025.31 1025.37 1025.39 1025.38 1025.36 1025.33 1025.31 1025.29 1025.30 1025.33 1025.38 1025.46 1025.57 1025.70 1025.85 1026.02 1026.19 1026.36 1026.51 1026.65 1026.76 1026.85
1015.78 1016.51 1017.17 1017.77 1018.31 1018.80 1019.26 1019.70 1020.14 1020.57 1021.02 1021.48 1021.94 1022.40 1022.85 1023.28 1023.67 1024.02 1024.33 1024.58 1024.78 1024.93 1025.03 1025.10 1025.14 1025.16 1025.17 1025.17 1025.18 1025.21 1025.25 1025.30 1025.39 1025.49 1025.62 1025.77 1025.93 1026.10 1026.28 1026.45 1026.60 1026.75 1026.87 1026.97
1015.78 1016.47 1017.10 1017.67 1018.18 1018.65 1019.09 1019.52 1019.94 1020.36 1020.79 1021.23 1021.68 1022.11 1022.54 1022.94 1023.31 1023.64 1023.93 1024.18 1024.37 1024.53 1024.65 1024.74 1024.81 1024.87 1024.92 1024.97 1025.02 1025.09 1025.17 1025.26 1025.38 1025.51 1025.66 1025.82 1026.00 1026.18 1026.36 1026.54 1026.71 1026.86 1027.01 1027.13
1015.61 1016.28 1016.88 1017.43 1017.93 1018.39 1018.83 1019.26 1019.68 1020.09 1020.52 1020.94 1021.36 1021.77 1022.17 1022.54 1022.88 1023.19 1023.45 1023.69 1023.88 1024.05 1024.19 1024.31 1024.41 1024.52 1024.62 1024.72 1024.83 1024.94 1025.07 1025.21 1025.35 1025.51 1025.68 1025.86 1026.05 1026.25 1026.44 1026.63 1026.82 1027.00 1027.17 1027.33
Thickness
5652 5655 5657 5655 5657 5663 5666 5669 5670 5663 5651 5638 5633 5627 5621 5615 5611 5607 5603 5600 5598 5595 5593 5592 5590 5588 5586 5583 5581 5578 5575 5571 5566 5562 5558 5554 5550 5546 5542 5539 5535 5531 5528 5525
5642 5648 5648 5643 5644 5648 5649 5654 5652 5644 5629 5627 5623 5617 5610 5605 5601 5596 5591 5587 5584 5581 5578 5576 5574 5572 5570 5567 5564 5562 5560 5556 5552 5548 5544 5540 5536 5531 5528 5525 5522 5518 5515 5512
5637 5639 5639 5628 5628 5632 5631 5633 5636 5628 5618 5613 5607 5603 5599 5594 5590 5584 5579 5574 5571 5567 5563 5561 5559 5557 5555 5553 5551 5548 5545 5542 5539 5536 5532 5528 5524 5520 5516 5513 5509 5506 5502 5498
5638 5631 5620 5617 5626 5626 5621 5617 5621 5616 5608 5602 5594 5589 5586 5583 5579 5573 5568 5563 5559 5555 5551 5548 5546 5544 5542 5541 5538 5536 5533 5531 5528 5524 5521 5516 5512 5508 5504 5501 5498 5494 5490 5486
5636 5628 5616 5616 5620 5621 5616 5606 5606 5601 5593 5587 5583 5578 5570 5568 5566 5562 5557 5553 5548 5544 5541 5538 5535 5533 5532 5530 5527 5526 5523 5520 5517 5513 5510 5506 5502 5498 5494 5490 5487 5484 5479 5473
5633 5624 5613 5612 5617 5619 5613 5598 5597 5594 5587 5583 5581 5575 5560 5555 5553 5549 5545 5541 5538 5535 5532 5529 5526 5524 5523 5521 5518 5516 5513 5510 5507 5504 5500 5497 5492 5488 5485 5481 5477 5474 5468 5462
5628 5621 5615 5612 5614 5613 5601 5595 5593 5589 5584 5580 5576 5569 5554 5547 5543 5540 5536 5532 5530 5527 5524 5521 5518 5517 5515 5513 5510 5507 5504 5501 5498 5494 5491 5487 5483 5480 5476 5473 5468 5464 5459 5454
5627 5619 5609 5609 5612 5605 5597 5596 5590 5584 5578 5571 5563 5554 5546 5540 5535 5532 5528 5525 5523 5520 5516 5513 5511 5510 5507 5504 5501 5499 5496 5493 5490 5486 5484 5481 5477 5473 5469 5465 5463 5458 5453 5448
5624 5614 5606 5604 5602 5598 5597 5591 5585 5579 5572 5564 5555 5547 5540 5534 5530 5527 5523 5519 5517 5514 5511 5508 5505 5503 5500 5496 5494 5491 5489 5486 5483 5480 5477 5474 5472 5469 5466 5461 5459 5455 5450 5445
5619 5609 5605 5601 5598 5595 5593 5587 5582 5575 5567 5559 5550 5542 5535 5530 5525 5521 5518 5515 5512 5510 5507 5503 5499 5496 5493 5490 5487 5485 5483 5480 5478 5476 5473 5470 5467 5465 5462 5458 5453 5449 5445 5441
5618 5608 5602 5597 5594 5590 5586 5581 5575 5568 5562 5555 5546 5538 5532 5527 5522 5518 5514 5511 5508 5505 5501 5497 5493 5490 5487 5484 5482 5480 5478 5476 5474 5473 5470 5465 5462 5456 5453 5446 5440 5438 5437 5435
5625 5616 5610 5598 5592 5587 5581 5575 5569 5562 5555 5549 5543 5536 5530 5524 5519 5515 5511 5507 5504 5500 5496 5492 5489 5486 5483 5480 5477 5475 5474 5472 5472 5470 5466 5464 5460 5453 5440 5437 5431 5428 5425 5423
5628 5621 5612 5599 5591 5584 5577 5571 5564 5558 5552 5545 5539 5533 5527 5521 5516 5511 5507 5503 5499 5496 5492 5488 5485 5481 5479 5476 5473 5471 5470 5469 5468 5467 5464 5461 5457 5454 5447 5436 5429 5427 5425 5423
5622 5614 5602 5594 5586 5580 5573 5566 5560 5554 5547 5542 5535 5529 5524 5518 5512 5508 5504 5500 5495 5491 5487 5484 5480 5477 5474 5471 5469 5468 5467 5465 5463 5462 5461 5459 5455 5452 5449 5445 5440 5435 5428 5424
5618 5614 5604 5593 5584 5576 5569 5563 5556 5549 5543 5537 5532 5526 5521 5515 5509 5504 5500 5496 5491 5487 5483 5479 5475 5471 5468 5467 5466 5465 5466 5465 5462 5460 5458 5456 5453 5450 5447 5443 5441 5438 5436 5431
5616 5610 5600 5590 5581 5573 5567 5561 5555 5547 5541 5535 5530 5524 5518 5513 5507 5501 5497 5492 5488 5484 5479 5475 5471 5467 5465 5464 5463 5463 5461 5454 5455 5457 5456 5453 5451 5448 5445 5442 5441 5439 5437 5435
5615 5605 5597 5588 5580 5574 5568 5561 5555 5548 5541 5535 5529 5523 5516 5510 5504 5499 5494 5490 5486 5481 5475 5471 5467 5464 5463 5461 5461 5463 5463 5457 5449 5455 5455 5452 5449 5447 5444 5442 5441 5439 5437 5431
5620 5611 5602 5593 5584 5575 5567 5560 5553 5547 5540 5534 5527 5521 5515 5509 5504 5499 5494 5488 5483 5478 5473 5469 5464 5462 5461 5460 5459 5461 5461 5460 5458 5456 5453 5450 5448 5446 5444 5442 5440 5439 5437 5435
5618 5610 5601 5593 5585 5576 5568 5560 5552 5546 5539 5532 5526 5520 5515 5510 5504 5499 5493 5489 5484 5479 5473 5467 5459 5460 5460 5458 5455 5458 5460 5459 5456 5454 5451 5443 5445 5445 5443 5441 5440 5439 5438 5437
5615 5607 5599 5591 5583 5576 5567 5559 5552 5544 5537 5532 5526 5520 5514 5509 5504 5499 5494 5490 5486 5481 5473 5467 5464 5462 5460 5458 5454 5461 5460 5458 5456 5453 5450 5449 5446 5444 5443 5441 5440 5438 5437 5437
5613 5605 5597 5590 5582 5574 5567 5559 5551 5543 5537 5531 5526 5520 5515 5509 5505 5500 5497 5493 5484 5478 5473 5466 5466 5465 5462 5459 5455 5461 5460 5457 5455 5452 5450 5448 5446 5444 5442 5440 5439 5438 5437 5437
5611 5603 5596 5589 5581 5572 5565 5558 5550 5543 5536 5531 5526 5522 5516 5510 5506 5501 5497 5494 5486 5476 5477 5475 5471 5463 5461 5457 5462 5462 5459 5456 5454 5451 5449 5447 5445 5443 5441 5439 5438 5437 5436 5435
5610 5602 5595 5587 5579 5571 5563 5557 5550 5543 5537 5532 5527 5522 5518 5515 5512 5507 5501 5494 5489 5479 5480 5477 5467 5461 5457 5461 5463 5461 5459 5455 5453 5451 5449 5447 5445 5443 5441 5439 5438 5436 5436 5435
5607 5599 5593 5585 5578 5570 5562 5557 5550 5543 5538 5533 5529 5524 5520 5516 5512 5510 5503 5491 5487 5481 5483 5474 5467 5463 5458 5466 5465 5462 5459 5456 5454 5452 5449 5448 5446 5443 5441 5439 5438 5437 5436 5434
5604 5597 5590 5583 5576 5570 5563 5556 5549 5543 5539 5535 5531 5525 5523 5520 5517 5512 5505 5498 5489 5484 5485 5476 5469 5466 5467 5470 5467 5464 5461 5458 5456 5452 5450 5447 5446 5444 5442 5440 5438 5437 5436 5435
5600 5595 5588 5582 5578 5572 5565 5559 5553 5547 5543 5538 5533 5529 5525 5521 5517 5512 5506 5502 5496 5489 5489 5486 5480 5473 5476 5474 5469 5466 5461 5456 5454 5452 5451 5449 5447 5445 5443 5441 5438 5438 5437 5436
5596 5592 5585 5581 5576 5572 5567 5561 5556 5550 5546 5541 5536 5532 5528 5523 5519 5516 5511 5507 5502 5498 5496 5492 5488 5485 5481 5477 5473 5468 5464 5461 5458 5455 5453 5451 5449 5447 5445 5442 5442 5440 5438 5437